FW3855 Weather Reports


time (UTC)temp
C
wind
direction
speed
KPH
gust
KPH
rain 1hr
cm
rain 24hr
cm
rain mn
cm
humidity
%
barometer
mb
20260510024229 27 297 3.2 8.0 0.00 0.00 0.00 3 1014.5
20260510023230 27 297 3.2 14.5 0.00 0.00 0.00 2 1014.5
20260510022731 27 251 3.2 14.5 0.00 0.00 0.00 2 1014.4
20260510022230 27 285 1.6 8.0 0.00 0.00 0.00 3 1014.3
20260510021726 27 239 1.6 6.4 0.00 0.00 0.00 2 1014.3
20260510021227 27 278 1.6 6.4 0.00 0.00 0.00 2 1014.3
20260510020725 28 204 1.6 6.4 0.00 0.00 0.00 2 1014.3
20260510020227 28 228 3.2 8.0 0.00 0.00 0.00 2 1014.3
20260510015223 29 231 3.2 9.7 0.00 0.00 0.00 1 1014.2
20260510014724 30 292 3.2 9.7 0.00 0.00 0.00 1 1014.2
20260510014223 30 245 3.2 9.7 0.00 0.00 0.00 1 1014.2
20260510012221 31 279 4.8 16.1 0.00 0.00 0.00 1 1014.0
20260510011719 30 278 6.4 19.3 0.00 0.00 0.00 1 1014.1
20260510011223 31 340 4.8 19.3 0.00 0.00 0.00 1 1014.1
20260510010719 31 255 4.8 17.7 0.00 0.00 0.00 1 1014.0
20260510010221 31 286 4.8 17.7 0.00 0.00 0.00 1 1014.1
20260510005719 31 275 3.2 9.7 0.00 0.00 0.00 1 1014.1
20260510005223 31 293 3.2 12.9 0.00 0.00 0.00 1 1014.1
20260510004719 31 321 4.8 14.5 0.00 0.00 0.00 1 1014.1
20260510004219 31 219 4.8 14.5 0.00 0.00 0.00 1 1014.1
20260510003719 31 179 6.4 12.9 0.00 0.00 0.00 1 1014.0
20260510003219 31 188 6.4 16.1 0.00 0.00 0.00 1 1014.0
20260510002719 31 294 6.4 16.1 0.00 0.00 0.00 1 1014.0
20260510001721 32 136 4.8 20.9 0.00 0.00 0.00 1 1014.0
20260510000719 32 211 8.0 20.9 0.00 0.00 0.00 1 1014.0
20260510000221 31 238 8.0 20.9 0.00 0.00 0.00 1 1013.8
20260509235719 31 260 9.7 20.9 0.00 0.00 0.00 1 1014.0
20260509235219 31 200 8.0 24.1 0.00 0.00 0.00 1 1014.1
20260509234718 31 254 4.8 24.1 0.00 0.00 0.00 1 1014.1
20260509234214 32 290 6.4 17.7 0.00 0.00 0.00 1 1014.2
20260509233714 32 293 6.4 17.7 0.00 0.00 0.00 1 1014.3
20260509233214 32 273 4.8 16.1 0.00 0.00 0.00 1 1014.2
20260509232714 32 204 6.4 24.1 0.00 0.00 0.00 1 1014.1
20260509232212 32 282 8.0 24.1 0.00 0.00 0.00 1 1014.2
20260509231713 32 231 8.0 22.5 0.00 0.00 0.00 1 1014.2
20260509231210 32 195 6.4 22.5 0.00 0.00 0.00 1 1014.2
20260509230710 32 262 8.0 29.0 0.00 0.00 0.00 1 1014.2
20260509230203 31 150 9.7 29.0 0.00 0.00 0.00 1 1014.2
20260509225657 32 213 8.0 19.3 0.00 0.00 0.00 1 1014.2
20260509225151 32 203 9.7 27.4 0.00 0.00 0.00 1 1014.1
20260509224646 32 141 11.3 30.6 0.00 0.00 0.00 1 1014.3
20260509224141 31 143 9.7 30.6 0.00 0.00 0.00 1 1014.2
20260509223634 31 265 8.0 20.9 0.00 0.00 0.00 1 1014.2
20260509223127 31 288 6.4 24.1 0.00 0.00 0.00 1 1014.3
20260509222622 32 274 8.0 24.1 0.00 0.00 0.00 1 1014.4
20260509222116 31 293 8.0 20.9 0.00 0.00 0.00 1 1014.5
20260509220616 31 305 9.7 37.0 0.00 0.00 0.00 1 1014.6
20260509220112 32 196 11.3 37.0 0.00 0.00 0.00 1 1014.8
20260509215114 32 301 6.4 20.9 0.00 0.00 0.00 1 1014.9
20260509214614 32 290 3.2 12.9 0.00 0.00 0.00 1 1014.9
20260509213610 31 229 8.0 17.7 0.00 0.00 0.00 1 1015.2
20260509213114 31 252 9.7 22.5 0.00 0.00 0.00 1 1015.1
20260509212611 31 267 8.0 22.5 0.00 0.00 0.00 1 1015.2
20260509212111 32 246 6.4 24.1 0.00 0.00 0.00 1 1015.2
20260509211611 31 324 8.0 24.1 0.00 0.00 0.00 1 1015.1
20260509211110 32 306 8.0 22.5 0.00 0.00 0.00 1 1015.2
20260509210114 31 225 9.7 22.5 0.00 0.00 0.00 1 1015.3
20260509205608 31 281 11.3 24.1 0.00 0.00 0.00 1 1015.4
20260509205100 31 300 9.7 24.1 0.00 0.00 0.00 1 1015.3
20260509204556 31 281 8.0 20.9 0.00 0.00 0.00 1 1015.4
20260509204047 31 299 9.7 24.1 0.00 0.00 0.00 1 1015.6
20260509203542 31 346 9.7 24.1 0.00 0.00 0.00 1 1015.7
20260509202530 31 196 8.0 24.1 0.00 0.00 0.00 1 1015.6
20260509202024 31 305 8.0 24.1 0.00 0.00 0.00 1 1015.7
20260509201519 31 221 8.0 22.5 0.00 0.00 0.00 1 1015.7
20260509201012 31 264 11.3 33.8 0.00 0.00 0.00 1 1015.8
20260509200507 31 194 11.3 33.8 0.00 0.00 0.00 1 1015.7
20260509195959 31 125 8.0 27.4 0.00 0.00 0.00 1 1015.8
20260509195454 31 322 8.0 20.9 0.00 0.00 0.00 1 1015.7
20260509194441 31 264 6.4 29.0 0.00 0.00 0.00 1 1015.8
20260509193935 31 210 6.4 29.0 0.00 0.00 0.00 1 1015.8
20260509192923 31 316 8.0 25.7 0.00 0.00 0.00 1 1016.1
20260509191911 31 250 4.8 14.5 0.00 0.00 0.00 1 1016.0
20260509191406 31 246 4.8 14.5 0.00 0.00 0.00 1 1016.0
20260509190900 31 228 6.4 16.1 0.00 0.00 0.00 1 1016.0
20260509190354 31 298 9.7 19.3 0.00 0.00 0.00 1 1016.2
20260509185847 31 299 8.0 19.3 0.00 0.00 0.00 1 1016.1
20260509184835 31 173 6.4 20.9 0.00 0.00 0.00 2 1016.4
20260509184329 31 29 6.4 14.5 0.00 0.00 0.00 2 1016.1
20260509183824 30 200 6.4 19.3 0.00 0.00 0.00 1 1016.2
20260509183320 30 240 6.4 19.3 0.00 0.00 0.00 1 1016.4
20260509182812 30 300 6.4 14.5 0.00 0.00 0.00 3 1016.2
20260509182307 30 150 6.4 20.9 0.00 0.00 0.00 2 1016.4
20260509181800 30 293 6.4 20.9 0.00 0.00 0.00 2 1016.5
20260509180748 30 276 8.0 22.5 0.00 0.00 0.00 3 1016.7
20260509175735 30 343 6.4 16.1 0.00 0.00 0.00 2 1016.8
20260509175230 30 11 4.8 16.1 0.00 0.00 0.00 2 1016.8
20260509174724 30 189 6.4 16.1 0.00 0.00 0.00 2 1016.7
20260509174218 29 248 6.4 16.1 0.00 0.00 0.00 3 1016.7
20260509173718 29 291 6.4 16.1 0.00 0.00 0.00 3 1016.9
20260509172716 29 198 6.4 16.1 0.00 0.00 0.00 3 1016.8
20260509172214 30 345 6.4 16.1 0.00 0.00 0.00 3 1016.8
20260509171214 28 27 4.8 12.9 0.00 0.00 0.00 4 1016.7
20260509170715 29 25 4.8 12.9 0.00 0.00 0.00 4 1016.7
20260509170214 29 57 4.8 11.3 0.00 0.00 0.00 3 1016.7
20260509165714 29 343 4.8 14.5 0.00 0.00 0.00 3 1016.7
20260509165211 29 350 4.8 14.5 0.00 0.00 0.00 4 1016.7
20260509164710 28 31 4.8 11.3 0.00 0.00 0.00 4 1016.7
20260509164210 29 342 4.8 12.9 0.00 0.00 0.00 4 1016.6
20260509163713 28 304 4.8 12.9 0.00 0.00 0.00 4 1016.5
20260509163208 28 77 4.8 9.7 0.00 0.00 0.00 4 1016.5
20260509162707 28 358 6.4 14.5 0.00 0.00 0.00 4 1016.6
20260509162208 28 94 6.4 14.5 0.00 0.00 0.00 4 1016.7
20260509161707 28 6 4.8 11.3 0.00 0.00 0.00 4 1016.6
20260509161208 28 33 6.4 11.3 0.00 0.00 0.00 4 1016.7
20260509160702 28 14 4.8 11.3 0.00 0.00 0.00 4 1016.7
20260509160154 28 359 4.8 11.3 0.00 0.00 0.00 4 1016.7
20260509155654 27 73 4.8 11.3 0.00 0.00 0.00 5 1016.8
20260509154656 27 349 4.8 9.7 0.00 0.00 0.00 5 1016.7
20260509154153 27 0 4.8 11.3 0.00 0.00 0.00 4 1016.7
20260509153652 27 12 4.8 11.3 0.00 0.00 0.00 5 1016.7
20260509152650 28 113 3.2 9.7 0.00 0.00 0.00 4 1016.6
20260509152151 28 83 3.2 6.4 0.00 0.00 0.00 4 1016.5
20260509151650 28 104 3.2 9.7 0.00 0.00 0.00 4 1016.5
20260509151152 27 90 4.8 9.7 0.00 0.00 0.00 5 1016.5
20260509150652 27 105 4.8 9.7 0.00 0.00 0.00 5 1016.5
20260509150151 27 110 4.8 9.7 0.00 0.00 0.00 5 1016.5
20260509145651 27 86 3.2 8.0 0.00 0.00 0.00 5 1016.5
20260509145151 27 93 3.2 8.0 0.00 0.00 0.00 5 1016.5
20260509144652 27 101 4.8 9.7 0.00 0.00 0.00 5 1016.5
20260509144150 27 71 4.8 9.7 0.00 0.00 0.00 5 1016.4
20260509143650 27 166 4.8 9.7 0.00 0.00 0.00 5 1016.4
20260509143151 27 139 3.2 9.7 0.00 0.00 0.00 5 1016.5
20260509142648 27 129 3.2 9.7 0.00 0.00 0.00 6 1016.2
20260509141647 26 165 4.8 9.7 0.00 0.00 0.00 6 1016.2
20260509135648 27 158 0.0 4.8 0.00 0.00 0.00 6 1016.2
20260509134149 25 198 0.0 3.2 0.00 0.00 0.00 8 1016.0
20260509133644 25 182 0.0 3.2 0.00 0.00 0.00 8 1015.9
20260509133146 23 194 0.0 1.6 0.00 0.00 0.00 9 1015.9
20260509132645 23 194 0.0 6.4 0.00 0.00 0.00 9 1015.9
20260509132143 23 193 1.6 6.4 0.00 0.00 0.00 9 1015.9
20260509131644 22 165 3.2 8.0 0.00 0.00 0.00 10 1015.9
20260509131147 22 172 3.2 8.0 0.00 0.00 0.00 11 1015.7
20260509130646 20 149 1.6 6.4 0.00 0.00 0.00 12 1015.7
20260509130144 20 196 1.6 6.4 0.00 0.00 0.00 12 1015.8
20260509125646 20 195 0.0 4.8 0.00 0.00 0.00 12 1015.7
20260509125144 20 141 0.0 3.2 0.00 0.00 0.00 12 1015.7
20260509124641 20 183 0.0 0.0 0.00 0.00 0.00 11 1015.7
20260509122635 21 176 1.6 6.4 0.00 0.00 0.00 10 1015.6
20260509122132 21 160 3.2 6.4 0.00 0.00 0.00 10 1015.4
20260509121634 21 167 3.2 6.4 0.00 0.00 0.00 10 1015.4
20260509121129 22 172 3.2 11.3 0.00 0.00 0.00 10 1015.4
20260509115632 23 133 3.2 14.5 0.00 0.00 0.00 9 1015.4
20260509115130 23 281 4.8 14.5 0.00 0.00 0.00 9 1015.4
20260509114630 23 269 6.4 14.5 0.00 0.00 0.00 9 1015.3
20260509113629 23 237 6.4 16.1 0.00 0.00 0.00 9 1015.4
20260509113134 23 245 6.4 12.9 0.00 0.00 0.00 9 1015.3
20260509112630 23 230 4.8 12.9 0.00 0.00 0.00 9 1015.4
20260509112122 23 195 3.2 12.9 0.00 0.00 0.00 9 1015.4
20260509111615 23 174 3.2 9.7 0.00 0.00 0.00 9 1015.4
20260509111111 23 263 3.2 9.7 0.00 0.00 0.00 8 1015.4
20260509110607 23 205 3.2 14.5 0.00 0.00 0.00 8 1015.6
20260509110058 23 201 4.8 17.7 0.00 0.00 0.00 8 1015.4
20260509105551 23 264 6.4 17.7 0.00 0.00 0.00 8 1015.4
20260509105048 23 248 6.4 17.7 0.00 0.00 0.00 8 1015.4
20260509104540 23 189 6.4 17.7 0.00 0.00 0.00 8 1015.3
20260509104034 23 147 6.4 19.3 0.00 0.00 0.00 8 1015.4
20260509103528 23 192 6.4 19.3 0.00 0.00 0.00 8 1015.6
20260509103022 23 212 6.4 17.7 0.00 0.00 0.00 8 1015.6
20260509102518 23 234 6.4 17.7 0.00 0.00 0.00 7 1015.6
20260509101504 24 172 9.7 25.7 0.00 0.00 0.00 7 1015.7
20260509100002 24 182 9.7 19.3 0.00 0.00 0.00 6 1015.7
20260509095449 23 198 6.4 14.5 0.00 0.00 0.00 6 1015.7
20260509094440 23 248 6.4 17.7 0.00 0.00 0.00 6 1015.7
20260509093418 23 305 4.8 14.5 0.00 0.00 0.00 6 1015.8
20260509092916 24 248 6.4 24.1 0.00 0.00 0.00 6 1015.8
20260509092407 24 219 6.4 25.7 0.00 0.00 0.00 6 1015.8
20260509091902 24 191 4.8 25.7 0.00 0.00 0.00 6 1015.8
20260509091354 24 217 4.8 17.7 0.00 0.00 0.00 6 1015.7
20260509090341 24 281 4.8 14.5 0.00 0.00 0.00 6 1015.8
20260509085835 24 218 4.8 12.9 0.00 0.00 0.00 5 1015.8
20260509085331 24 226 6.4 17.7 0.00 0.00 0.00 5 1015.8
20260509084836 24 226 8.0 22.5 0.00 0.00 0.00 5 1015.8
20260509083815 24 168 8.0 19.3 0.00 0.00 0.00 4 1015.8
20260509082758 25 208 9.7 19.3 0.00 0.00 0.00 4 1015.8
20260509082255 25 240 9.7 22.5 0.00 0.00 0.00 4 1015.8
20260509081754 25 140 9.7 24.1 0.00 0.00 0.00 4 1015.7
20260509081248 25 148 9.7 25.7 0.00 0.00 0.00 4 1015.8
20260509080739 25 200 9.7 25.7 0.00 0.00 0.00 4 1015.8
20260509080233 25 202 9.7 24.1 0.00 0.00 0.00 4 1015.8
20260509075728 25 244 9.7 29.0 0.00 0.00 0.00 4 1015.8
20260509075225 25 206 8.0 29.0 0.00 0.00 0.00 4 1015.9
20260509074712 25 196 8.0 19.3 0.00 0.00 0.00 3 1015.9
20260509074208 25 233 8.0 24.1 0.00 0.00 0.00 3 1015.9
20260509073702 25 282 8.0 24.1 0.00 0.00 0.00 3 1015.8
20260509073159 25 227 8.0 16.1 0.00 0.00 0.00 3 1015.9
20260509072652 25 184 8.0 19.3 0.00 0.00 0.00 3 1015.9
20260509072142 25 225 6.4 17.7 0.00 0.00 0.00 3 1015.9
20260509071636 25 154 4.8 14.5 0.00 0.00 0.00 3 1015.9
20260509070622 25 302 8.0 20.9 0.00 0.00 0.00 3 1015.9
20260509070127 25 221 8.0 20.9 0.00 0.00 0.00 3 1015.9
20260509065114 25 268 6.4 19.3 0.00 0.00 0.00 3 1015.9
20260509064109 25 215 8.0 17.7 0.00 0.00 0.00 3 1015.9
20260509063612 25 178 9.7 22.5 0.00 0.00 0.00 3 1015.9
20260509063109 25 193 11.3 29.0 0.00 0.00 0.00 3 1015.9
20260509062611 25 162 9.7 29.0 0.00 0.00 0.00 3 1016.0
20260509062107 25 184 6.4 25.7 0.00 0.00 0.00 3 1015.9
20260509061632 25 223 4.8 16.1 0.00 0.00 0.00 3 1015.9
20260509060612 25 159 8.0 25.7 0.00 0.00 0.00 3 1015.9
20260509060111 25 193 8.0 22.5 0.00 0.00 0.00 3 1015.9
20260509055616 25 215 9.7 22.5 0.00 0.00 0.00 3 1015.9
20260509055110 25 172 9.7 24.1 0.00 0.00 0.00 3 1016.0
20260509054609 25 175 8.0 24.1 0.00 0.00 0.00 3 1016.0
20260509054106 25 179 8.0 19.3 0.00 0.00 0.00 3 1016.0
20260509053613 25 223 8.0 19.3 0.00 0.00 0.00 3 1016.0
20260509053102 25 98 6.4 17.7 0.00 0.00 0.00 4 1016.1
20260509052609 25 160 8.0 19.3 0.00 0.00 0.00 4 1016.0
20260509052056 25 183 8.0 19.3 0.00 0.00 0.00 3 1016.1
20260509051557 25 252 9.7 24.1 0.00 0.00 0.00 4 1016.1
20260509051057 25 196 9.7 24.1 0.00 0.00 0.00 4 1016.2
20260509050553 25 143 6.4 16.1 0.00 0.00 0.00 4 1016.1
20260509050058 25 212 6.4 19.3 0.00 0.00 0.00 4 1016.1
20260509045554 25 163 6.4 19.3 0.00 0.00 0.00 5 1016.1
20260509045053 25 241 4.8 12.9 0.00 0.00 0.00 5 1016.1
20260509044553 25 161 4.8 12.9 0.00 0.00 0.00 5 1016.1
20260509044047 25 196 4.8 12.9 0.00 0.00 0.00 5 1016.1
20260509043549 25 165 4.8 12.9 0.00 0.00 0.00 5 1016.0
20260509043052 25 180 6.4 17.7 0.00 0.00 0.00 6 1016.0
20260509042546 25 181 6.4 19.3 0.00 0.00 0.00 5 1016.0
20260509042047 25 193 4.8 19.3 0.00 0.00 0.00 5 1015.9
20260509041545 25 230 4.8 16.1 0.00 0.00 0.00 6 1015.8
20260509041048 25 176 4.8 16.1 0.00 0.00 0.00 6 1015.8
20260509040545 25 236 3.2 8.0 0.00 0.00 0.00 6 1015.8
20260509040045 25 218 4.8 19.3 0.00 0.00 0.00 6 1015.7
20260509035046 25 127 3.2 12.9 0.00 0.00 0.00 6 1015.7
20260509034546 25 236 3.2 12.9 0.00 0.00 0.00 6 1015.6
20260509034044 25 199 3.2 9.7 0.00 0.00 0.00 6 1015.4
20260509033554 26 182 4.8 9.7 0.00 0.00 0.00 6 1015.4
20260509033045 26 202 6.4 16.1 0.00 0.00 0.00 6 1015.3
20260509032548 26 245 4.8 16.1 0.00 0.00 0.00 5 1015.3
20260509032045 26 238 3.2 12.9 0.00 0.00 0.00 6 1015.2
20260509031047 26 250 3.2 11.3 0.00 0.00 0.00 6 1015.1
20260509030544 26 311 1.6 9.7 0.00 0.00 0.00 6 1015.1
20260509030043 26 219 1.6 8.0 0.00 0.00 0.00 6 1015.1
20260509025551 26 207 3.2 12.9 0.00 0.00 0.00 6 1015.0
20260509025044 26 244 4.8 12.9 0.00 0.00 0.00 6 1015.0